Clinton, IA

2:39 PM CDT on July 26, 2017 (GMT -0500)
Clinton Municipal

Weather History for KCWI - April, 2013

Change the Weather History Date:

Wednesday, April 17, 2013

  Actual Average Record
Temperature  
Mean Temperature 44 °F -  
Max Temperature 48 °F 64 °F 85 °F (1976)
Min Temperature 41 °F 40 °F 24 °F (1983)
Degree Days  
Heating Degree Days 20    
Moisture  
Dew Point 35 °F    
Average Humidity 73    
Maximum Humidity 87    
Minimum Humidity 57    
Precipitation  
Precipitation 1.69 in - - ()
Sea Level Pressure  
Sea Level Pressure 30.15 in    
Wind  
Wind Speed 16 mph (East)    
Max Wind Speed 26 mph    
Max Gust Speed 38 mph    
Visibility 9 miles    
Events Thunderstorm    
Averages and records for this station are not official NWS values.
T = Trace of Precipitation, MM = Missing Value Source: NWS Daily Summary

Daily Weather History Graph

Daily Weather History Graph

Search for Another Location

Airport or City:

Trip Planner

Search our weather history database for the weather conditions in past years. The results will help you decide how hot, cold, wet, or windy it might be!

Date:

Astronomy

Apr. 17, 2013 Rise Set
Actual Time 6:17 AM CDT 7:44 PM CDT
Civil Twilight 5:48 AM CDT 8:13 PM CDT
Nautical Twilight 5:13 AM CDT 8:49 PM CDT
Astronomical Twilight 4:36 AM CDT 9:26 PM CDT
Moon 11:29 AM CDT (4/17) 1:24 AM CDT (4/17)
Length of Visible Light 14h 25m
Length of Day
13h 27m
Waxing Crescent, 42% of the Moon is Illuminated
Apr 17
Waxing Crescent
Apr 18
First Quarter
Apr 25
Full
May 2
Last Quarter
May 9
New

Hourly Weather History & Observations

Time (CDT) Temp. Windchill Dew Point Humidity Pressure Visibility Wind Dir Wind Speed Gust Speed Precip Events Conditions
12:15 AM 48.2 °F - 35.6 °F 62% 30.25 in 10.0 mi East 10.4 mph - N/A   Overcast
12:35 AM 48.2 °F - 37.4 °F 66% 30.25 in 10.0 mi East 19.6 mph - N/A   Overcast
12:55 AM 46.4 °F 39.5 °F 35.6 °F 66% 30.26 in 10.0 mi East 17.3 mph 24.2 mph N/A   Overcast
1:15 AM 46.4 °F 40.1 °F 35.6 °F 66% 30.26 in 10.0 mi East 15.0 mph - N/A   Overcast
1:35 AM 46.4 °F 40.7 °F 35.6 °F 66% 30.27 in 10.0 mi East 12.7 mph - N/A   Overcast
1:55 AM 44.6 °F 38.1 °F 33.8 °F 66% 30.27 in 10.0 mi East 13.8 mph 20.7 mph N/A   Overcast
2:15 AM 44.6 °F 36.6 °F 33.8 °F 66% 30.26 in 10.0 mi East 19.6 mph 24.2 mph N/A   Overcast
2:35 AM 44.6 °F 38.1 °F 32.0 °F 61% 30.27 in 10.0 mi East 13.8 mph - N/A   Overcast
2:55 AM 44.6 °F 37.4 °F 32.0 °F 61% 30.27 in 10.0 mi East 16.1 mph - N/A   Overcast
3:15 AM 44.6 °F 38.1 °F 32.0 °F 61% 30.25 in 10.0 mi East 13.8 mph - N/A   Overcast
3:35 AM 44.6 °F 38.1 °F 32.0 °F 61% 30.26 in 10.0 mi East 13.8 mph - N/A   Mostly Cloudy
3:55 AM 44.6 °F 37.2 °F 30.2 °F 57% 30.25 in 10.0 mi East 17.3 mph - N/A   Overcast
4:15 AM 42.8 °F 34.8 °F 32.0 °F 66% 30.23 in 10.0 mi East 17.3 mph 20.7 mph N/A   Overcast
4:35 AM 42.8 °F 36.2 °F 32.0 °F 66% 30.22 in 10.0 mi East 12.7 mph 18.4 mph N/A   Overcast
4:55 AM 42.8 °F 35.1 °F 30.2 °F 61% 30.20 in 10.0 mi East 16.1 mph - N/A   Scattered Clouds
5:15 AM 42.8 °F 35.1 °F 30.2 °F 61% 30.20 in 10.0 mi East 16.1 mph - N/A   Partly Cloudy
5:35 AM 42.8 °F 35.8 °F 30.2 °F 61% 30.23 in 10.0 mi East 13.8 mph - N/A Thunderstorm Scattered Clouds
5:55 AM 42.8 °F 34.3 °F 30.2 °F 61% 30.18 in 10.0 mi ENE 19.6 mph 27.6 mph N/A Thunderstorm Mostly Cloudy
6:15 AM 42.8 °F 34.8 °F 32.0 °F 66% 30.22 in 10.0 mi ENE 17.3 mph 20.7 mph N/A Thunderstorm Thunderstorm
6:35 AM 41.0 °F 32.8 °F 32.0 °F 70% 30.22 in 10.0 mi ENE 16.1 mph - 0.01 in   Overcast
6:55 AM 41.0 °F 32.2 °F 32.0 °F 70% 30.20 in 10.0 mi East 18.4 mph 33.4 mph 0.03 in Thunderstorm Thunderstorm
7:15 AM 41.0 °F 30.5 °F 33.8 °F 76% 30.13 in 10.0 mi East 26.5 mph 38.0 mph 0.01 in   Mostly Cloudy
7:35 AM 41.0 °F 30.5 °F 33.8 °F 76% 30.15 in 10.0 mi East 26.5 mph 32.2 mph 0.01 in   Mostly Cloudy
7:55 AM 41.0 °F 31.9 °F 33.8 °F 76% 30.16 in 10.0 mi East 19.6 mph 28.8 mph 0.01 in   Mostly Cloudy
8:15 AM 42.8 °F 33.1 °F 33.8 °F 70% 30.13 in 10.0 mi East 25.3 mph 29.9 mph N/A Thunderstorm Overcast
8:35 AM 42.8 °F 38.0 °F 33.8 °F 70% 30.23 in 3.0 mi East 8.1 mph - 0.12 in Thunderstorm Thunderstorm
9:15 AM 41.0 °F 32.8 °F 35.6 °F 81% 30.13 in 10.0 mi East 16.1 mph - 0.03 in   Mostly Cloudy
9:35 AM 42.8 °F 35.1 °F 35.6 °F 76% 30.15 in 10.0 mi East 16.1 mph - 0.03 in Thunderstorm Mostly Cloudy
9:55 AM 42.8 °F 34.5 °F 35.6 °F 76% 30.12 in 10.0 mi East 18.4 mph - 0.05 in Thunderstorm Overcast
10:15 AM 42.8 °F 34.5 °F 35.6 °F 76% 30.10 in 10.0 mi East 18.4 mph - N/A Thunderstorm Mostly Cloudy
10:35 AM 42.8 °F 35.1 °F 35.6 °F 76% 30.12 in 10.0 mi NNE 16.1 mph - N/A   Overcast
10:55 AM 42.8 °F 33.8 °F 35.6 °F 76% 30.07 in 10.0 mi East 21.9 mph - N/A   Overcast
11:15 AM 42.8 °F 33.5 °F 35.6 °F 76% 30.06 in 8.0 mi East 23.0 mph 27.6 mph 0.04 in Thunderstorm Overcast
11:35 AM 42.8 °F 33.1 °F 35.6 °F 76% 30.00 in 5.0 mi East 25.3 mph 29.9 mph 0.05 in   Overcast
11:55 AM 42.8 °F 33.1 °F 37.4 °F 81% 30.10 in 3.0 mi North 25.3 mph 32.2 mph 0.36 in Thunderstorm Thunderstorm
12:15 PM 41.0 °F 35.2 °F 35.6 °F 81% 30.14 in 1.5 mi NE 9.2 mph 27.6 mph 0.32 in Thunderstorm Thunderstorm
12:35 PM 41.0 °F 33.1 °F 35.6 °F 81% 30.10 in 3.0 mi ENE 15.0 mph - 0.43 in Thunderstorm Thunderstorm
12:55 PM 41.0 °F 39.0 °F 37.4 °F 87% 30.19 in 2.0 mi North 3.5 mph - 0.62 in Thunderstorm Thunderstorm
1:15 PM 41.0 °F 33.1 °F 37.4 °F 87% 30.10 in 3.0 mi East 15.0 mph - 0.12 in Thunderstorm Overcast
1:35 PM 41.0 °F 31.9 °F 37.4 °F 87% 30.05 in 4.0 mi ENE 19.6 mph - 0.21 in   Overcast
1:55 PM 41.0 °F 30.7 °F 37.4 °F 87% 30.00 in 8.0 mi ENE 25.3 mph - 0.25 in Thunderstorm Overcast
2:15 PM 42.8 °F 34.0 °F 37.4 °F 81% 30.02 in 10.0 mi East 20.7 mph 25.3 mph 0.01 in   Mostly Cloudy
2:35 PM 42.8 °F 34.3 °F 39.2 °F 87% 30.01 in 10.0 mi East 19.6 mph - 0.01 in   Overcast
2:55 PM 42.8 °F 38.0 °F 39.2 °F 87% 30.09 in 10.0 mi South 8.1 mph - 0.02 in Thunderstorm Overcast
3:35 PM 44.6 °F 38.8 °F 39.2 °F 81% 30.03 in 7.0 mi ESE 11.5 mph - 0.16 in   Overcast
3:55 PM 44.6 °F 37.4 °F 41.0 °F 87% 30.01 in 8.0 mi ESE 16.1 mph 19.6 mph 0.20 in   Mostly Cloudy
4:15 PM 44.6 °F 36.6 °F 41.0 °F 87% 29.96 in 10.0 mi ESE 19.6 mph - 0.01 in   Mostly Cloudy
4:35 PM 44.6 °F 36.4 °F 41.0 °F 87% 29.95 in 10.0 mi ESE 20.7 mph 26.5 mph 0.03 in   Overcast